Date,TemperatureHighF,TemperatureAvgF,TemperatureLowF,DewpointHighF,DewpointAvgF,DewpointLowF,HumidityHigh,HumidityAvg,HumidityLow,PressureMaxIn,PressureMinIn,WindSpeedMaxMPH,WindSpeedAvgMPH,GustSpeedMaxMPH,PrecipitationSumIn
2013-5-1,64.2,56.6,51.3,52.7,50.2,48.2,93,80,59,30.19,30.09,9,1,9,0.00
2013-5-2,61.2,54.8,51.4,53.6,50.4,47.5,94,85,71,30.22,30.14,7,0,7,0.01
2013-5-3,63.7,52.4,48.9,52.0,48.5,46.2,94,87,59,30.17,30.02,10,1,11,0.08
2013-5-4,49.8,46.9,43.5,46.9,44.0,37.2,94,90,76,30.02,29.92,11,1,12,0.60
2013-5-5,48.0,46.8,45.5,46.4,45.1,43.5,95,94,92,29.96,29.80,13,2,13,1.15
2013-5-6,62.2,51.1,43.3,46.4,43.1,33.4,96,77,36,29.88,29.75,8,1,9,0.14
2013-5-7,63.7,49.9,42.3,50.5,44.6,39.7,94,83,50,29.97,29.84,7,0,7,0.07
2013-5-8,61.0,53.1,47.7,55.2,50.6,46.2,96,91,77,30.07,29.92,5,0,6,0.10
2013-5-9,73.8,58.9,48.2,59.9,51.4,46.8,96,78,45,30.11,30.02,8,1,9,0.00
2013-5-10,70.3,59.3,52.5,61.0,54.9,50.2,94,86,58,30.09,29.91,9,1,9,0.59
2013-5-11,66.9,58.0,54.0,59.9,55.1,50.9,95,90,71,29.95,29.82,6,1,6,0.10
2013-5-12,61.3,51.1,39.7,51.3,39.7,25.5,93,69,26,30.07,29.88,9,1,11,0.00
2013-5-13,61.5,46.1,35.4,38.5,31.5,17.6,88,61,20,30.22,30.07,12,1,13,0.00
2013-5-14,73.6,55.5,37.8,54.0,42.5,32.4,88,64,35,30.26,30.06,8,1,11,0.00
2013-5-15,84.6,67.8,59.5,61.2,53.0,43.0,77,61,34,30.10,29.92,8,2,11,0.00
2013-5-16,76.1,64.1,56.5,56.5,52.9,42.3,85,69,32,30.00,29.92,7,0,7,0.00
2013-5-17,73.0,63.5,55.2,61.3,55.3,49.3,91,76,48,30.06,29.97,5,0,6,0.00
2013-5-18,65.8,61.3,58.8,60.8,58.1,54.0,95,89,78,30.03,29.96,6,0,6,0.20
2013-5-19,72.9,62.9,58.5,65.7,60.2,56.8,96,91,72,30.05,29.94,4,0,4,0.22
2013-5-20,77.4,63.4,55.9,66.9,60.2,54.5,96,90,64,30.06,29.97,9,0,11,0.85
2013-5-21,78.1,64.1,59.4,69.1,61.0,57.9,96,90,62,30.00,29.88,8,0,9,0.36
2013-5-22,77.2,63.7,57.0,68.5,60.2,55.6,96,89,63,29.96,29.81,7,0,9,0.33
2013-5-23,73.0,62.5,57.4,62.1,57.6,51.1,96,85,59,29.90,29.82,7,0,8,0.01
2013-5-24,64.0,55.1,43.9,53.4,43.6,28.9,92,68,33,30.21,29.89,9,1,9,0.00
2013-5-25,73.6,52.9,37.6,50.0,39.8,33.1,90,65,28,30.33,30.20,6,0,6,0.00
2013-5-26,70.7,54.9,46.4,55.8,46.3,32.0,94,74,46,30.27,30.17,5,0,6,0.03
2013-5-27,78.3,62.4,50.5,61.2,53.7,46.2,92,75,47,30.23,30.08,7,0,7,0.00
2013-5-28,79.2,66.6,59.9,61.7,57.3,52.5,87,73,42,30.15,30.05,7,1,7,0.00
2013-5-29,81.3,67.1,57.4,64.4,57.5,53.6,90,73,46,30.16,30.05,5,0,5,0.00
2013-5-30,83.1,67.1,57.0,64.4,57.1,53.6,91,72,40,30.19,30.06,5,0,6,0.00
2013-5-31,79.9,68.4,62.1,61.5,59.0,55.8,87,73,48,30.13,30.02,7,0,8,0.00